This demonstration page uses our WeatherBlox Daily Observations layout. Learn more.

Left ArrowRight Arrow

Hourly Observations for December 16, 2016

Temp ( °F °C ) Dew Point ( °F °C ) Humidity (%) Winds ( mph kmh ) Pressure ( in mb ) Visibility ( mi km ) Precip ( " mm )
12:17 am 00:17 Cloudy with Light Snow 1 -17.2 -3 -19.4 83 83 Calm 30.36 1028 3 5 0.00 0.03
12:53 am 00:53 Cloudy with Light Snow 1 -17.2 -3 -19.4 83 83 NE 3 6 30.23 1024 5 8 0.00 0.03
1:53 am 01:53 Cloudy with Light Snow 0 -17.8 -5 -20.6 79 79 NNE 6 9 30.23 1024 4 6 0.00 0.03
2:53 am 02:53 Cloudy with Light Snow -1 -18.3 -6 -21.1 79 79 NNE 5 7 30.24 1024 4 6 0.01 0.25
3:53 am 03:53 Cloudy with Light Snow -2 -18.9 -7 -21.7 79 79 ENE 6 9 30.23 1024 5 8 0.00 0.03
4:53 am 04:53 Cloudy with Light Snow -3 -19.4 -7 -21.7 82 82 NE 6 9 30.21 1023 6 10 0.00 0.03
5:53 am 05:53 Cloudy -3 -19.4 -7 -21.7 82 82 NE 5 7 30.22 1024 10 16 0.00 0.03
6:53 am 06:53 Cloudy with Light Snow -3 -19.4 -7 -21.7 82 82 NNE 3 6 30.23 1024 4 6 0.00 0.03
7:53 am 07:53 Cloudy with Light Snow -3 -19.4 -7 -21.7 82 82 NNE 3 6 30.23 1024 4 6 0.00 0.03
8:17 am 08:17 Cloudy with Light Snow -2 -19 -8 -22 77 77 NNE 3 6 30.36 1028 2 3 0.00 0.00
8:43 am 08:43 Cloudy with Light Snow -3 -19.4 -8 -22.2 79 79 Calm 30.36 1028 3 5 0.01 0.25
8:53 am 08:53 Cloudy with Mist and Fog -4 -20 -7 -21.7 86 86 Calm 30.26 1025 4 6 0.01 0.25
9:53 am 09:53 Cloudy with Mist and Fog -4 -20 -8 -22.2 83 83 NW 5 7 30.28 1025 4 6 0.00 0.00
10:38 am 10:38 Cloudy with Mist and Fog -6 -21 -9 -23 84 84 W 5 7 30.42 1030 5 8 0.00 0.00
10:53 am 10:53 Cloudy -5 -20.6 -10 -23.3 79 79 WNW 6 9 30.30 1026 10 16 0.00 0.00
11:53 am 11:53 Cloudy with Haze -3 -19.4 -9 -22.8 75 75 WNW 6 9 30.28 1026 5 8 0.00 0.00
12:53 pm 12:53 Cloudy with Haze -3 -19.4 -10 -23.3 71 71 WNW 8 13 30.28 1025 6 10 0.00 0.00
1:05 pm 13:05 Cloudy -3 -19.4 -10 -23.3 71 71 WNW 7 11 30.42 1030 7 11 0.00 0.00
1:33 pm 13:33 Cloudy -2 -18.9 -9 -22.8 72 72 NW 8 13 30.39 1029 10 16 0.00 0.00
1:53 pm 13:53 Cloudy -1 -18.3 -9 -22.8 68 68 NW 8 13 30.27 1025 10 16 0.00 0.00
2:53 pm 14:53 Cloudy -3 -19.4 -12 -24.4 65 65 NW 10 17 30.31 1026 10 16 0.00 0.00
3:53 pm 15:53 Sunny -11 -23.9 -16 -26.7 78 78 W 9 15 30.34 1027 10 16 0.00 0.00
4:53 pm 16:53 Clear -17 -27.2 -20 -28.9 85 85 WSW 8 13 30.37 1028 10 16 0.00 0.00
5:53 pm 17:53 Clear -21 -29.4 -25 -31.7 80 80 W 10 17 30.40 1029 10 16 0.00 0.00
6:53 pm 18:53 Clear -21 -29.4 -25 -31.7 80 80 SW 13 20 30.40 1029 10 16 0.00 0.00
7:53 pm 19:53 Clear -18 -27.8 -22 -30 81 81 SW 13 20 30.40 1030 10 16 0.00 0.00
8:53 pm 20:53 Clear -21 -29.4 -24 -31.1 85 85 VRB 7 11 30.42 1030 10 16 0.00 0.00
9:53 pm 21:53 Clear -28 -33.3 -31 -35 85 85 WSW 5 7 30.42 1030 10 16 0.00 0.00
10:53 pm 22:53 Clear -26 -32.2 -30 -34.4 81 81 WSW 5 7 30.42 1030 10 16 0.00 0.00
11:53 pm 23:53 Clear -24 -31.1 -28 -33.3 81 81 SW 14 22 30.40 1029 10 16 0.00 0.00

Powered by AerisWeather